Regional Weather Roundup
Issued by NWS Cleveland, OH

Home | Current Version | Previous Version | Graphics & Text | Print | Product List | Glossary On
Versions: 1 2 3 4 5 6 7 8 9 10 11 12 13 14 15 16 17 18 19 20 21 22 23 24 25 26 27 28 29 30 31 32 33 34 35 36 37 38 39 40 41 42 43 44 45 46 47 48 49 50
000
ASUS41 KCLE 301012
RWRCLE
OHIO REGIONAL WEATHER ROUNDUP
NATIONAL WEATHER SERVICE WILMINGTON, OH
600 AM EDT MON MAY 30 2016

NOTE: "FAIR" INDICATES FEW OR NO CLOUDS BELOW 12,000 FEET WITH NO
SIGNIFICANT WEATHER AND/OR OBSTRUCTIONS TO VISIBILITY.

OHZ001>008-015>018-024>027-034-035-043-044-301100-
   NORTHWEST OHIO

CITY           SKY/WX    TMP DP  RH WIND       PRES   REMARKS
DEFIANCE       FAIR      59  55  87 CALM      30.02R
FINDLAY        FAIR      62  55  77 CALM      30.01R
TOLEDO EXPRESS FAIR      58  56  93 CALM      30.00R
TOLEDO EXEC    FAIR      62  54  74 CALM      30.01R
LIMA           FAIR      61  58  90 CALM      30.03R
$$

OHZ009>014-019>023-028>033-038-089-301100-
   NORTHEAST OHIO

CITY           SKY/WX    TMP DP  RH WIND       PRES   REMARKS
CLE-HOPKINS    MOCLDY    63  60  90 SW3       30.02S
CLE-LAKEFRONT  FAIR      65  60  84 S3        29.99R
CUY CO. ARPT   NOT AVBL
LORAIN-ELYRIA  FAIR      61  58  90 CALM      30.01R
ASHTABULA      FAIR      62  61  96 CALM      30.01R
AKRON-CANTON   FAIR      61  59  93 SW3       30.02R FOG
WOOSTER        FOG       57  56  96 W3        30.02S VSB 3/4
MANSFIELD      FAIR      60  60 100 W3        30.03R
YOUNGSTOWN     FAIR      63  62  97 S6        30.01R FOG
$$

OHZ042-051>053-060>062-070>072-077>081-301100-
  SOUTHWEST OHIO

CITY           SKY/WX    TMP DP  RH WIND       PRES   REMARKS
CINC-COVINGTON MOCLDY    66  64  93 CALM      30.04R
CINC-LUNKEN    FAIR      62  62 100 E3        30.04R FOG
HAMILTON       FAIR      64  62  93 CALM      30.04R
DAYTON         MOCLDY    63  61  93 CALM      30.05R
WRIGHT-PAT AFB CLEAR     63  63 100 CALM      30.03R FOG
DAYTON GENERAL FAIR      64  61  90 S3        30.03R
WILMINGTON     FAIR      64  62  93 W6        30.04R
$$

OHZ036-037-039>041-045>050-054>059-063>069-073>076-082>088-301100-
  CENTRAL AND SOUTHEAST OHIO

CITY           SKY/WX    TMP DP  RH WIND       PRES   REMARKS
COLUMBUS       MOCLDY    63  63 100 CALM      30.01R
OSU AIRPORT    FAIR      62  61  96 CALM      30.02R
BOLTON FIELD   FAIR      63  63 100 W3        30.03R FOG
RICKENBACK AFB FAIR      62  62  99 CALM      30.01S FOG
NEWARK         FAIR      59  57  93 CALM      30.01R FOG
MARION         FAIR      60  59  96 CALM      30.03R FOG
LANCASTER      FAIR      62  59  90 CALM      30.02R
ZANESVILLE     MOCLDY    66  61  84 CALM      30.02S
NEW PHILLY     FAIR      65  61  87 CALM      30.02S FOG
$$




USA.gov is the U.S. government's official web portal to all federal, state and local government web resources and services.